This demonstration page uses our WeatherBlox Daily Observations layout. Learn more.

Left ArrowRight Arrow

39.08367, -84.50855

Hourly Observations for August 27, 2017

Temp ( °F °C ) Dew Point ( °F °C ) Humidity (%) Winds ( mph kmh ) Pressure ( in mb ) Visibility ( mi km ) Precip ( " mm )
12:53 am 00:53 Clear 56 13.3 56 13.3 100 100 N N/A 30.19 1022 10 16 N/A
1:53 am 01:53 Clear 55 12.8 55 12.8 100 100 N N/A 30.19 1022 10 16 N/A
2:53 am 02:53 Clear 55 12.8 54 12.2 96 96 N N/A 30.19 1022 10 16 N/A
3:53 am 03:53 Clear 54 12.2 54 12.2 100 100 ENE 3 6 30.19 1022 9 14 N/A
4:53 am 04:53 Clear 53 11.7 53 11.7 100 100 N N/A 30.18 1022 9 14 N/A
5:53 am 05:53 Clear 53 11.7 53 11.7 100 100 N N/A 30.17 1022 7 11 N/A
6:53 am 06:53 Clear 55 12.8 54 12.2 96 96 N N/A 30.17 1022 10 16 N/A
7:53 am 07:53 Sunny 56 13.3 55 12.8 97 97 N N/A 30.17 1022 9 14 N/A
8:53 am 08:53 Sunny 60 15.6 55 12.8 84 84 N N/A 30.18 1022 10 16 N/A
9:53 am 09:53 Sunny 65 18.3 56 13.3 73 73 NE 5 7 30.16 1021 10 16 N/A
10:53 am 10:53 Sunny 70 21.1 57 13.9 64 64 VRB 6 9 30.16 1021 10 16 N/A
11:53 am 11:53 Sunny 75 23.9 58 14.4 55 55 VRB 5 7 30.15 1021 10 16 N/A
12:53 pm 12:53 Sunny 77 25 58 14.4 52 52 N N/A 30.14 1021 10 16 N/A
1:53 pm 13:53 Sunny 79 26.1 57 13.9 47 47 NE 9 15 30.10 1019 10 16 N/A
2:53 pm 14:53 Sunny 81 27.2 59 15 47 47 VRB 6 9 30.09 1019 10 16 N/A
3:53 pm 15:53 Sunny 82 27.8 58 14.4 44 44 N 7 11 30.06 1018 10 16 N/A
4:53 pm 16:53 Sunny 82 27.8 58 14.4 44 44 NE 10 17 30.05 1018 10 16 N/A
5:53 pm 17:53 Sunny 82 27.8 59 15 46 46 NE 8 13 30.04 1017 10 16 N/A
6:53 pm 18:53 Sunny 80 26.7 59 15 49 49 NE 7 11 30.04 1017 10 16 N/A
7:53 pm 19:53 Sunny 74 23.3 61 16.1 64 64 NE 5 7 30.04 1017 10 16 N/A
8:53 pm 20:53 Clear 70 21.1 62 16.7 76 76 N N/A 30.04 1017 10 16 N/A
9:53 pm 21:53 Clear 66 18.9 63 17.2 90 90 NNE 3 6 30.05 1018 10 16 N/A
10:53 pm 22:53 Clear 65 18.3 62 16.7 90 90 N 3 6 30.06 1018 10 16 N/A
11:53 pm 23:53 Mostly Clear 65 18.3 63 17.2 93 93 NE 3 6 30.03 1017 10 16 N/A

Powered by AerisWeather